Regional Weather Roundup
Issued by NWS Charleston, WV

Home | Current Version | Previous Version | Graphics & Text | Print | Product List | Glossary On
Versions: 1 2 3 4 5 6 7 8 9 10 11 12 13 14 15 16 17 18 19 20 21 22 23 24 25 26 27 28 29 30 31 32 33 34 35 36 37 38 39 40 41 42 43 44 45 46 47 48 49 50
000
ASUS41 KRLX 280810
RWRRLX
West Virginia Regional Weather Roundup
National Weather Service Charleston WV
300 AM EST SAT FEB 28 2015

Note: "fair" indicates few or no clouds below 12,000 feet with no
significant weather and/or obstructions to visibility.

WVZ003-280900-
Northern Panhandle of West Virginia

CITY           SKY/WX    TMP DP  RH WIND       PRES   REMARKS
WHEELING       PTCLDY     6  -4  63 CALM      30.66R
$$

WVZ009-280900-
Northwest West Virginia

CITY           SKY/WX    TMP DP  RH WIND       PRES   REMARKS
PARKERSBURG    CLEAR      6   1  80 CALM      30.72R
$$

WVZ006-280900-
Western West Virginia

CITY           SKY/WX    TMP DP  RH WIND       PRES   REMARKS
HUNTINGTON     CLEAR     14   3  61 NE6       30.66S WCI   5
$$

WVZ015-280900-
West Central West Virginia

CITY           SKY/WX    TMP DP  RH WIND       PRES   REMARKS
CHARLESTON     MOCLDY    16   4  59 NE5       30.66R WCI   9
$$

WVZ022-031-280900-
North Central West Virginia

CITY           SKY/WX    TMP DP  RH WIND       PRES   REMARKS
CLARKSBURG     MIX PCPN   8   3  80 CALM      30.65R
MORGANTOWN     CLEAR      7  -1  70 CALM      30.66R
$$

WVZ025-035-042-045-280900-
Southern West Virginia

CITY           SKY/WX    TMP DP  RH WIND       PRES   REMARKS
BECKLEY        PTCLDY     6   0  76 CALM      30.51R
LOGAN          CLOUDY    16   5  62 CALM      30.55R
BLUEFIELD      MOCLDY    12   3  67 E5        30.47F WCI   4
LEWISBURG      PTCLDY     4  -2  77 N9        30.53F WCI -11
$$

WVZ047-280900-
Northern Mountains of West Virginia

CITY           SKY/WX    TMP DP  RH WIND       PRES   REMARKS
ELKINS         MOCLDY     1  -2  87 CALM      30.58S
$$

WVZ052-280900-
Eastern Panhandle of West Virginia

CITY           SKY/WX    TMP DP  RH WIND       PRES   REMARKS
MARTINSBURG    CLEAR     17  -1  45 N5        30.70R WCI  10
PETERSBURG       N/A     15   5  66 NW3       30.67S
$$


USA.gov is the U.S. government's official web portal to all federal, state and local government web resources and services.